When you browse on this site, cookies collect data to enhance your experience and personalize the content and advertising you see.
Visit our Privacy Policy to learn more. By continuing to use the site, you agree to this use of cookies and data.
  • In Hungary
  • List of Countries
  • For 7 days
  • Water Temperature
  • Satellite Maps
  • Weather Map
  • News
  • Weather Widgets
  • user-avatar
    Login

    Hourly Weather Chanhassen

    Today, 20 March, Wednesday

    Time Temperature Precipitation Wind Pressure Humidity
    00:00 -1°C° 0 mm 4 mps 737 mmHg 96%
    01:00 -1°C° 0 mm 4 mps 736 mmHg 96%
    02:00 -1°C° 0 mm 4 mps 736 mmHg 95%
    03:00 -1°C° 0 mm 4 mps 735 mmHg 94%
    04:00 -1°C° 0 mm 4 mps 735 mmHg 93%
    05:00 -1°C° 0 mm 4 mps 734 mmHg 92%
    06:00 -1°C° 0 mm 5 mps 734 mmHg 91%
    07:00 -1°C° 0 mm 5 mps 734 mmHg 89%
    08:00 0°C° 0 mm 5 mps 734 mmHg 87%
    09:00 0°C° 0 mm 5 mps 733 mmHg 85%
    10:00 0°C° 0 mm 5 mps 734 mmHg 86%
    11:00 +1°C° 0 mm 5 mps 734 mmHg 87%
    12:00 +1°C° 0 mm 5 mps 734 mmHg 88%
    13:00 +2°C° 0 mm 5 mps 734 mmHg 86%
    14:00 +2°C° 0 mm 5 mps 734 mmHg 85%
    15:00 +3°C° 0 mm 4 mps 735 mmHg 84%
    16:00 +3°C° 0 mm 4 mps 735 mmHg 85%
    17:00 +1°C° 0 mm 4 mps 736 mmHg 86%
    18:00 +1°C° 0 mm 4 mps 736 mmHg 87%
    19:00 +1°C° 0 mm 3 mps 736 mmHg 88%
    20:00 +1°C° 0 mm 3 mps 737 mmHg 89%
    21:00 +1°C° 0 mm 3 mps 737 mmHg 91%
    22:00 0°C° 0 mm 3 mps 738 mmHg 91%
    23:00 0°C° 0 mm 3 mps 738 mmHg 92%

    Tomorrow, 21 March, Thursday

    Time Temperature Precipitation Wind Pressure Humidity
    00:00 -1°C° 0 mm 3 mps 738 mmHg 92%
    01:00 -1°C° 0 mm 3 mps 738 mmHg 93%
    02:00 -1°C° 0 mm 3 mps 738 mmHg 93%
    03:00 -2°C° 0 mm 3 mps 738 mmHg 94%
    04:00 -2°C° 0 mm 3 mps 738 mmHg 93%
    05:00 -2°C° 0 mm 2 mps 738 mmHg 93%
    06:00 -2°C° 0 mm 2 mps 738 mmHg 93%
    07:00 -1°C° 0 mm 3 mps 738 mmHg 88%
    08:00 0°C° 0 mm 3 mps 737 mmHg 83%
    09:00 -1°C° 0 mm 4 mps 737 mmHg 78%
    10:00 +1°C° 0 mm 4 mps 737 mmHg 75%
    11:00 +2°C° 0 mm 5 mps 737 mmHg 73%
    12:00 +3°C° 0 mm 5 mps 737 mmHg 71%
    13:00 +3°C° 0 mm 5 mps 737 mmHg 71%
    14:00 +5°C° 0 mm 5 mps 736 mmHg 72%
    15:00 +5°C° 0 mm 5 mps 736 mmHg 73%
    16:00 +3°C° 0 mm 5 mps 737 mmHg 75%
    17:00 +3°C° 0 mm 4 mps 737 mmHg 78%
    18:00 +3°C° 0 mm 4 mps 737 mmHg 81%
    19:00 +2°C° 0 mm 3 mps 738 mmHg 81%
    20:00 +2°C° 0 mm 3 mps 738 mmHg 82%
    21:00 +1°C° 0 mm 3 mps 739 mmHg 82%
    22:00 +1°C° 0 mm 3 mps 739 mmHg 84%
    23:00 0°C° 0 mm 3 mps 739 mmHg 86%

    Day after tomorrow, 22 March, Friday

    Time Temperature Precipitation Wind Pressure Humidity
    00:00 -1°C° 0 mm 3 mps 740 mmHg 89%
    01:00 -1°C° 0 mm 2 mps 740 mmHg 89%
    02:00 -1°C° 0 mm 2 mps 740 mmHg 90%
    03:00 -2°C° 0 mm 2 mps 740 mmHg 90%
    04:00 -2°C° 0 mm 2 mps 740 mmHg 91%
    05:00 -2°C° 0 mm 2 mps 741 mmHg 91%
    06:00 -2°C° 0 mm 2 mps 741 mmHg 91%
    07:00 -1°C° 0 mm 3 mps 741 mmHg 85%
    08:00 0°C° 0 mm 3 mps 742 mmHg 79%
    09:00 +1°C° 0 mm 3 mps 742 mmHg 73%
    10:00 +2°C° 0 mm 3 mps 742 mmHg 65%
    11:00 +3°C° 0 mm 3 mps 742 mmHg 58%
    12:00 +5°C° 0 mm 2 mps 742 mmHg 51%
    13:00 +6°C° 0 mm 2 mps 742 mmHg 48%
    14:00 +7°C° 0 mm 2 mps 742 mmHg 46%
    15:00 +7°C° 0 mm 2 mps 742 mmHg 43%
    16:00 +7°C° 0 mm 2 mps 741 mmHg 46%
    17:00 +6°C° 0 mm 2 mps 741 mmHg 49%
    18:00 +6°C° 0 mm 1 mps 741 mmHg 52%
    19:00 +5°C° 0 mm 1 mps 741 mmHg 55%
    20:00 +4°C° 0 mm 1 mps 742 mmHg 57%
    21:00 +3°C° 0 mm 1 mps 742 mmHg 60%
    22:00 +3°C° 0 mm 1 mps 742 mmHg 63%
    23:00 +2°C° 0 mm 1 mps 741 mmHg 65%

    23 March, Saturday

    Time Temperature Precipitation Wind Pressure Humidity
    00:00 +1°C° 0 mm 2 mps 741 mmHg 67%
    01:00 -1°C° 0 mm 2 mps 741 mmHg 69%
    02:00 -1°C° 0 mm 2 mps 741 mmHg 71%
    03:00 -1°C° 0 mm 2 mps 741 mmHg 73%
    04:00 -1°C° 0 mm 2 mps 741 mmHg 74%
    05:00 -2°C° 0 mm 2 mps 741 mmHg 74%
    06:00 -2°C° 0 mm 2 mps 741 mmHg 75%
    07:00 +1°C° 0 mm 2 mps 741 mmHg 70%
    08:00 +2°C° 0 mm 2 mps 741 mmHg 64%
    09:00 +2°C° 0 mm 3 mps 741 mmHg 58%
    10:00 +4°C° 0 mm 3 mps 741 mmHg 53%
    11:00 +7°C° 0 mm 3 mps 740 mmHg 48%
    12:00 +8°C° 0 mm 3 mps 740 mmHg 42%
    13:00 +9°C° 0 mm 3 mps 739 mmHg 41%
    14:00 +10°C° 0 mm 3 mps 738 mmHg 40%
    15:00 +11°C° 0 mm 3 mps 738 mmHg 39%
    16:00 +10°C° 0 mm 3 mps 737 mmHg 44%
    17:00 +9°C° 0 mm 3 mps 737 mmHg 48%
    18:00 +8°C° 0 mm 2 mps 736 mmHg 53%
    19:00 +8°C° 0 mm 3 mps 736 mmHg 55%
    20:00 +7°C° 0 mm 3 mps 736 mmHg 57%
    21:00 +7°C° 0 mm 3 mps 736 mmHg 59%
    22:00 +5°C° 0 mm 3 mps 736 mmHg 62%
    23:00 +5°C° 0 mm 3 mps 735 mmHg 65%

    24 March, Sunday

    Time Temperature Precipitation Wind Pressure Humidity
    00:00 +6°C° 0 mm 2 mps 735 mmHg 68%
    01:00 +5°C° 0.4 mm 2 mps 734 mmHg 75%
    02:00 +5°C° 0.4 mm 2 mps 733 mmHg 82%
    03:00 +5°C° 0.4 mm 2 mps 733 mmHg 89%
    04:00 +5°C° 0.8 mm 2 mps 732 mmHg 92%
    05:00 +5°C° 0.8 mm 2 mps 732 mmHg 94%
    06:00 +5°C° 0.8 mm 2 mps 732 mmHg 96%
    07:00 +5°C° 0.5 mm 2 mps 731 mmHg 96%
    08:00 +5°C° 0.5 mm 2 mps 731 mmHg 96%
    09:00 +5°C° 0.5 mm 2 mps 731 mmHg 97%
    10:00 +5°C° 0.8 mm 2 mps 731 mmHg 97%
    11:00 +5°C° 0.8 mm 2 mps 731 mmHg 97%
    12:00 +5°C° 0.8 mm 2 mps 730 mmHg 97%
    13:00 +4°C° 0.9 mm 3 mps 731 mmHg 95%
    14:00 +4°C° 0.9 mm 4 mps 731 mmHg 93%
    15:00 +3°C° 0.9 mm 5 mps 731 mmHg 91%
    16:00 +2°C° 0.5 mm 6 mps 732 mmHg 88%
    17:00 +2°C° 0.5 mm 7 mps 733 mmHg 84%
    18:00 0°C° 0.5 mm 8 mps 734 mmHg 81%
    19:00 -1°C° 0 mm 8 mps 735 mmHg 75%
    20:00 -2°C° 0 mm 8 mps 736 mmHg 69%
    21:00 -5°C° 0 mm 8 mps 738 mmHg 63%
    22:00 -6°C° 0 mm 7 mps 739 mmHg 61%
    23:00 -6°C° 0 mm 7 mps 740 mmHg 58%

    25 March, Monday

    Time Temperature Precipitation Wind Pressure Humidity
    00:00 -6°C° 0 mm 6 mps 741 mmHg 56%
    01:00 -6°C° 0 mm 6 mps 741 mmHg 57%
    02:00 -7°C° 0 mm 5 mps 742 mmHg 58%
    03:00 -7°C° 0 mm 5 mps 742 mmHg 59%
    04:00 -7°C° 0 mm 5 mps 743 mmHg 56%
    05:00 -7°C° 0 mm 5 mps 744 mmHg 53%
    06:00 -7°C° 0 mm 4 mps 744 mmHg 50%
    07:00 -7°C° 0 mm 4 mps 745 mmHg 46%
    08:00 -5°C° 0 mm 4 mps 745 mmHg 42%
    09:00 -5°C° 0 mm 4 mps 746 mmHg 37%
    10:00 -4°C° 0 mm 4 mps 746 mmHg 34%
    11:00 -2°C° 0 mm 4 mps 746 mmHg 30%
    12:00 -1°C° 0 mm 4 mps 746 mmHg 26%
    13:00 -1°C° 0 mm 4 mps 745 mmHg 26%
    14:00 0°C° 0 mm 4 mps 745 mmHg 25%
    15:00 +1°C° 0 mm 4 mps 744 mmHg 25%
    16:00 +1°C° 0 mm 3 mps 744 mmHg 28%
    17:00 +1°C° 0 mm 3 mps 744 mmHg 31%
    18:00 +1°C° 0 mm 2 mps 744 mmHg 34%
    19:00 -1°C° 0 mm 2 mps 744 mmHg 36%
    20:00 -2°C° 0 mm 2 mps 744 mmHg 38%
    21:00 0°C° 0 mm 1 mps 744 mmHg 40%
    22:00 -1°C° 0 mm 1 mps 744 mmHg 41%
    23:00 -1°C° 0 mm 1 mps 744 mmHg 41%
    Show more